星链-1590 (STARLINK-1590 )

导读 | 豆包AI

STARLINK-1590是美国于2020年8月18日发射的星链卫星,隶属于SpaceX打造的星链卫星互联网星座项目。它旨在为全球范围提供高速、低延迟的宽带互联网服务,尤其覆盖偏远与网络基础设施匮乏区域,是星链大规模组网部署过程中的组成单元,推动了全球卫星互联网网络的构建进程。

基本信息
目录编号:
46138
目录名称:
STARLINK-1590
国际标识:
2020-057X
轨道中心:
EARTH
卫星名称:
星链-1590
卫星全名:
星链-1590 (STARLINK-1590 )
卫星状态:
已陨落 最后检测时间 2025-04-04
发射日期:
2020-08-18 UTC
国别 :
美国 (US)
星等 :
--
轨道信息
数据来源 国际轨道数据
星历时间: 2025-04-04T09:05:26+0800
轨道信息已过期365天
半长轴: 6538.81km
偏心率: 0.0006738
轨道倾角: 53.024°
近地点辐角 263.051°
升交点赤经 322.234°
平近点角 253.249°
近地点: 156.269km
远地点: 165.081km
周期: 87.702分钟
每日圈数: 16.419304
详细信息
固有亮度:
5
最大亮度:
2.5
卫星平台:
Starlink V1.0
覆盖范围:
全球
运营商:
太空探索技术公司
运营商所在国:
美国
制造商(研发单位):
太空探索技术公司
制造商所在国:
美国
使用方式:
暂无
卫星简介
星链(Starlink)计划是由太空探索技术公司(SpaceX)提出的一个巨型低轨卫星互联网星座项目,计划在2019年至2024年间在太空搭建由约1.2万颗卫星组成的“星链”网络,其中1584颗将部署在地球上空550千米处的近地轨道,并从2020年开始工作。该卫星仍在工作。